#timestamp,LO_Frequency,Hit 
1504652415.4,286046977.8,N
1504652435.2,286046978.4,N
1504652455.1,286046974.4,P
1504652456.0,286046974.4,P
1504652475.8,286046986.7,N
1504652495.6,286046986.2,N
1504652515.5,286046986.3,N
1504652535.3,286046989.6,N
1504652555.1,286046987.5,N
1504652575.8,286046988.1,N
1504652595.7,286046985.6,N
1504652615.5,286046989.7,N
1504652635.3,286046989.8,N
1504652655.2,286046988.1,N
1504652675.0,286046987.9,N
1504652675.9,286046987.9,N
1504652695.8,286046985.5,P
1504652715.6,286047000.3,N
1504652735.4,286047000.3,N
1504652755.2,286046998.1,N
1504652775.1,286047000.1,N
1504652776.0,286047000.1,N
1504652795.8,286046996.6,N
1504652815.6,286046995.6,N
1504652835.5,286046995.0,N
1504652855.3,286046997.7,N
1504652875.1,286046994.9,N
1504652895.9,286046993.3,N
1504652915.7,286046996.0,N
1504652935.5,286046996.2,N
1504652955.4,286046993.6,N
1504652975.2,286046999.3,N
1504652995.0,286047004.4,N
1504652995.9,286047004.4,N
1504653015.8,286047005.2,N
1504653035.6,286047008.6,N
1504653055.4,286047011.5,N
1504653075.3,286047018.6,P
1504653095.1,286047019.9,N
1504653096.0,286047019.9,N
1504653115.8,286047017.6,N
1504653135.7,286047018.3,N
1504653155.5,286047018.4,N
1504653175.3,286047018.0,N
1504653195.1,286047019.0,N
1504653215.9,286047021.9,P
1504653235.7,286047001.8,N
1504653255.5,286047005.7,N
1504653275.4,286047004.1,N
1504653295.2,286047001.3,N
1504653315.0,286047002.6,N
1504653315.9,286047002.6,N
1504653335.8,286047003.9,N
1504653355.6,286047003.3,N
1504653375.4,286047004.2,N
1504653395.3,286047004.1,N
1504653415.1,286047006.4,N
1504653435.8,286047008.4,N
1504653455.7,286047010.4,N
1504653475.5,286047010.5,N
1504653495.3,286047009.7,N
1504653515.2,286047012.4,N
1504653535.9,286047010.8,N
1504653555.7,286047006.2,N
1504653575.6,286047006.4,N
1504653595.4,286047006.3,N
1504653615.2,286047008.0,N
1504653635.0,286047008.5,N
1504653635.9,286047008.5,N
1504653655.8,286047011.9,N
1504653675.6,286047010.3,N
1504653695.4,286047011.9,N
1504653715.3,286047010.3,N
1504653735.1,286047009.4,N
1504653755.8,286047010.2,N
1504653775.7,286047012.3,N
1504653795.5,286047012.1,P
1504653815.3,286047001.5,N
1504653835.2,286047002.9,N
1504653855.9,286047005.6,N
1504653875.7,286047005.9,N
1504653895.6,286047005.1,N
1504653915.4,286047003.6,N
1504653935.2,286047002.4,N
1504653955.1,286047002.2,N
1504653956.0,286047002.2,N
1504653975.8,286047004.3,N
1504653995.6,286047003.2,N
1504654015.5,286047003.9,N
1504654035.3,286047005.6,N
1504654055.1,286047000.1,N
1504654075.8,286046998.3,N
1504654095.7,286046998.3,N
1504654115.5,286046997.3,N
1504654135.3,286046993.3,N
1504654155.2,286046994.5,N
1504654175.9,286046993.9,N
1504654195.7,286046992.2,N
1504654215.6,286046992.3,N
1504654235.4,286046990.2,N
1504654255.2,286046987.4,N
1504654275.1,286046987.1,N
1504654276.0,286046987.1,N
1504654295.8,286046985.8,N
1504654315.6,286046986.0,N
1504654335.5,286046986.1,N
1504654355.3,286046985.1,N
1504654375.1,286046979.2,N
1504654395.8,286046980.0,N
1504654415.7,286046981.5,N
1504654435.5,286046982.8,N
1504654455.3,286046981.4,N
1504654475.2,286046981.1,N
1504654495.9,286046981.9,N
1504654515.7,286046983.6,N
1504654535.6,286046979.0,N
1504654555.4,286046978.7,N
1504654575.2,286046976.7,N
1504654595.1,286046979.8,N
1504654596.0,286046979.8,N
1504654615.8,286046981.9,N
1504654635.6,286046981.3,N
1504654655.5,286046979.0,P
1504654675.3,286046995.7,N
1504654695.1,286046992.7,N
1504654715.9,286046990.6,N
1504654735.7,286046992.5,N
1504654755.5,286046992.7,N
1504654775.4,286046994.2,N
1504654795.2,286046994.9,N
1504654815.0,286046995.0,N
1504654815.9,286046995.0,N
1504654835.8,286046993.5,N
1504654855.6,286046991.8,N
1504654875.4,286046990.7,N
1504654895.2,286046992.8,N
1504654915.1,286046987.5,N
1504654916.0,286046987.5,N
1504654935.8,286046989.6,N
1504654955.6,286046993.0,N
1504654975.5,286046997.6,N
1504654995.3,286047001.9,N
1504655015.1,286046999.7,N
1504655035.9,286047001.5,N
1504655055.7,286047005.6,N
1504655075.5,286047006.9,N
1504655095.4,286047010.5,N
1504655115.2,286047012.6,N
1504655135.0,286047017.2,N
1504655135.9,286047017.2,N
1504655155.8,286047015.2,N
1504655175.6,286047014.1,N
1504655195.4,286047016.7,N
1504655215.2,286047013.3,N
1504655235.1,286047015.3,N
1504655236.0,286047015.3,N
1504655255.8,286047018.7,N
1504655275.6,286047015.7,N
1504655295.5,286047021.1,N
1504655315.3,286047020.6,N
1504655335.1,286047025.4,N
1504655355.9,286047024.8,N
1504655375.7,286047020.7,N
1504655395.5,286047022.8,N
1504655415.4,286047021.4,N
1504655435.2,286047018.1,N
1504655455.0,286047020.2,N
1504655455.9,286047020.2,N
1504655475.8,286047021.2,N
1504655495.6,286047026.3,P
1504655515.4,286047011.3,N
1504655535.3,286047013.5,N
1504655555.1,286047012.1,N
1504655575.8,286047008.1,N
1504655595.7,286047006.3,N
1504655615.5,286047007.4,N
1504655635.3,286047006.1,N
1504655655.2,286047008.5,N
1504655675.9,286047008.3,N
1504655695.7,286047008.2,N
1504655715.5,286047006.1,N
1504655735.4,286047007.8,N
1504655755.2,286047009.0,N
1504655775.0,286047009.2,N
1504655775.9,286047009.2,N
1504655795.8,286047008.8,N
1504655815.6,286047007.5,N
1504655835.4,286047007.3,N
1504655855.3,286047007.3,N
1504655875.1,286047005.8,N
1504655876.0,286047005.8,N
1504655895.8,286047005.6,N
1504655915.7,286047008.6,N
1504655935.5,286047008.5,N
1504655955.3,286047011.9,N
1504655975.1,286047012.0,N
1504655995.9,286047010.0,N
